Home > Weather > Hennef (Sieg) > Past weeks

Flag for Germany Past Weather in Hennef (Sieg), North Rhine-Westphalia, Germany — Yesterday and Last 2 Weeks

Now
65 °F

Overcast.


Feels Like: 65 °F
Forecast: 53 / 76 °F
Wind: 5 mph from Southeast

Location: Aachen-Orsbach

Current Time: May 27, 2016 at 8:18:17 PM

Latest Report: May 27, 2016 at 7:00 PM


Visibility: 19 mi

Pressure: 29.94 "Hg

Humidity: 73%

Dew Point: 56 °F

Location of Hennef (Sieg)Location

Past Weather in Hennef (Sieg) — Graph

°F

Hennef (Sieg) Temperature Yesterday

Maximum temperature yesterday: 68 °F (at 4:00 PM)
Minimum temperature yesterday: 47 °F (at 6:00 AM)
Average temperature yesterday: 59 °F

High & Low Weather Summary for the Past Weeks

 TemperatureHumidityPressure
High72 °F (May 21, 6:00 PM)97% (May 23, 6:00 AM)30.17 "Hg (May 23, 6:00 AM)
Low39 °F (May 15, 12:00 AM)33% (May 13, 7:00 PM)29.47 "Hg (May 12, 7:00 PM)
Average55 °F74%29.93 "Hg
* Reported May 12 7:00 PM — May 27 7:00 PM, Hennef (Sieg), Weather by CustomWeather, © 2016

Note: Actual official high and low records may vary slightly from our data, if they occured in-between our weather recording intervals... More about our weather records

Advertising

Hennef (Sieg) Weather History for the Previous 24 Hours

Scroll right to see more
 ConditionsComfort  
Time TempWeatherWind HumidityBarometerVisibility
7:00 PM
Fri, May 27
65 °FOvercast.5 mph73%29.94 "Hg19 mi
6:00 PM68 °FOvercast.5 mph66%29.94 "Hg34 mi
4:00 PM69 °FPassing clouds.5 mph55%29.94 "Hg25 mi
3:00 PM69 °FPassing clouds.3 mph63%29.96 "Hg25 mi
1:00 PM67 °FPartly sunny.5 mph69%29.96 "Hg31 mi
12:00 PM65 °FPartly sunny.3 mph72%29.97 "Hg31 mi
10:00 AM67 °FPassing clouds.1 mph66%29.97 "Hg31 mi
9:00 AM63 °FScattered clouds.2 mph77%29.97 "Hg25 mi
7:00 AM56 °FPartly sunny.3 mph88%29.96 "Hg12 mi
6:00 AM55 °FPartly sunny.2 mph88%29.96 "Hg9 mi
5:00 AMN/APassing clouds.6 mphN/AN/A25 mi
4:00 AM56 °FOvercast.2 mph86%29.96 "Hg3 mi
3:00 AM57 °FOvercast.2 mph84%29.96 "Hg3 mi
1:00 AM58 °FOvercast.3 mph77%29.96 "Hg4 mi
12:00 AM61 °FOvercast.3 mph69%29.97 "Hg6 mi
10:00 PM
Thu, May 26
63 °FOvercast.5 mph62%29.96 "Hg14 mi
9:00 PM65 °FOvercast.3 mph58%29.96 "Hg14 mi
Weather by CustomWeather, © 2016

See weather overviewHow to use our weather pages